This is the latest recevied weather packets stored in our database for station/object KD8UYA. If no packets are shown the sender has not sent any weather packets the latest 10 day(s).
| Time | Temp. | Humidity | Pressure | Rain* | Wind** | Luminosity | Snow |
|---|---|---|---|---|---|---|---|
| 1777600856 | 6.11° C | 82% | 1013.4 hPa | 0 mm | - | - | - |
| 1777599952 | 6.67° C | 79% | 1013.2 hPa | 0 mm | - | - | - |
| 1777599050 | 7.22° C | 76% | 1013.2 hPa | 0 mm | - | - | - |
| 1777598151 | 7.78° C | 78% | 1013.1 hPa | 0 mm | - | - | - |
| 1777597259 | 7.78° C | 73% | 1013.1 hPa | 0 mm | - | - | - |
| 1777596349 | 8.89° C | 70% | 1013 hPa | 0 mm | - | - | - |
| 1777595452 | 8.89° C | 66% | 1013 hPa | 0 mm | - | - | - |
| 1777594548 | 9.44° C | 62% | 1013 hPa | 0 mm | - | - | - |
| 1777593649 | 9.44° C | 62% | 1013 hPa | 0 mm | - | - | - |
| 1777592753 | 10° C | 62% | 1012.9 hPa | 0 mm | - | - | - |
| 1777591846 | 10° C | 59% | 1012.9 hPa | 0 mm | - | - | - |
| 1777590950 | 10° C | 58% | 1012.8 hPa | 0 mm | - | - | - |
| 1777590045 | 10° C | 63% | 1012.8 hPa | 0 mm | - | - | - |
| 1777589145 | 10° C | 60% | 1012.9 hPa | 0 mm | - | - | - |
| 1777588304 | 10° C | 62% | 1013 hPa | 0 mm | - | - | - |
| 1777587343 | 10° C | 57% | 1012.9 hPa | 0 mm | - | - | - |
| 1777586441 | 10° C | 58% | 1012.8 hPa | 0 mm | - | - | - |
| 1777585600 | 10.56° C | 59% | 1012.8 hPa | 0 mm | - | - | - |
| 1777584652 | 9.44° C | 58% | 1012.7 hPa | 0 mm | - | - | - |
| 1777583742 | 9.44° C | 61% | 1012.9 hPa | 0 mm | - | - | - |
| 1777582837 | 10° C | 62% | 1012.8 hPa | 0 mm | - | - | - |
| 1777581936 | 9.44° C | 66% | 1012.9 hPa | 0 mm | - | - | - |
| 1777581037 | 9.44° C | 65% | 1013 hPa | 0 mm | - | - | - |
| 1777580137 | 9.44° C | 64% | 1012.9 hPa | 0 mm | - | - | - |
| 1777579233 | 9.44° C | 67% | 1012.9 hPa | 0 mm | - | - | - |
* Rain latest hour (hover to see other rain measurements)
** Current wind speed in m/s (hover to see current wind gust speed)